Regional Weather Roundup
Issued by NWS

Home | Current Version | Previous Version | Text Only | Print | Product List | Glossary Off
Versions: 1 2 3 4 5 6 7 8 9 10 11 12 13 14 15 16 17 18 19 20 21 22 23 24 25 26 27 28 29 30 31 32 33 34 35 36 37 38 39 40 41 42 43 44 45 46 47 48 49 50

153
ASUS45 KCYS 201710
RWRWY

WYOMING REGIONAL WEATHER ROUNDUP
NATIONAL WEATHER SERVICE CHEYENNE WY
1000 AM MST MON FEB 20 2017

NOTE:  "FAIR" INDICATES FEW OR NO CLOUDS BELOW 12,000 FEET
WITH NO SIGNIFICANT WEATHER AND/OR OBSTRUCTIONS TO VISIBILITY.

WYZ001-201800-
YELLOWSTONE NATIONAL PARK

CITY           SKY/WX    TMP DP  RH WIND       PRES   REMARKS
LK YELLOWSTONE   N/A     27  26  96 CALM      29.89S
W YELLOWSTONE  NOT AVBL

$$
WYZ002>013-054>058-071-098>099-201800-
NORTHERN WYOMING

CITY           SKY/WX    TMP DP  RH WIND       PRES   REMARKS
JACKSON        CLOUDY    30  30 100 SW10      29.95R WCI  21
CODY           FAIR      42  19  39 SE15      29.83F
GREYBULL       FAIR      38  28  67 S7        29.88S WCI  33
WORLAND        FAIR      41  29  62 S8        29.87S
SHERIDAN       FAIR      47  24  40 SE18G28   29.81S
BUFFALO        FAIR      49  22  34 SE14      29.83F
GILLETTE       FAIR      46  29  51 SW17      29.85S
HULETT         FAIR      45  34  65 SW10      29.86S
NEWCASTLE      FAIR      45  32  61 N7        29.89F

$$
WYZ014>020-022>026-101>103-201800-
CENTRAL WYOMING

CITY           SKY/WX    TMP DP  RH WIND       PRES   REMARKS
BIG PINEY      FAIR      20  15  81 NE6       30.03R WCI  12
PINEDALE       CLOUDY    25  21  86 W3        30.03R
DUBOIS         PTSUNNY   32  25  74 N7        29.90S WCI  26
LANDER         FAIR      39  21  48 VRB3      29.90R
RIVERTON       FAIR      37  23  56 NE5       29.89F WCI  33
CASPER         FAIR      44  22  41 S25G39    29.94F
DOUGLAS        FAIR      50  17  27 W21       29.93S

$$
WYZ021-027>030-104>119-201800-
SOUTHERN WYOMING

CITY           SKY/WX    TMP DP  RH WIND       PRES   REMARKS
EVANSTON       FAIR      33  26  75 SW15      30.04R WCI  23
KEMMERER         N/A     36  28  75 S8        30.03R WCI  29
FORT BRIDGER   FAIR      40  27  59 SW6       30.06R
ROCK SPRINGS   FAIR      36  27  69 S7        30.03F WCI  30
DIXON            N/A     32  28  86 SW5       30.16R WCI  27
RAWLINS        PTSUNNY   37  28  70 SW20G26   30.05R WCI  27
SARATOGA       FAIR      37  28  70 SW6       30.09R WCI  33
LARAMIE        FAIR      40  20  44 SW15G23   30.01R WCI  32
CHEYENNE       FAIR      46  15  28 NW21G35   29.98R
TORRINGTON     FAIR      50  17  27 W15G25    29.93R
PINE BLUFFS    FAIR      50  18  27 NW28G33   29.97R

$$




USA.gov is the U.S. government's official web portal to all federal, state and local government web resources and services.